Location: Ferchesar
(52.6477°N, 12.4298°E)
Time: 06:48:15
(UTC+01:00)

Tiros 1 - Pass Details

Date: 10 December 2021
Orbit: 629 x 664 km, 48.4° (Epoch: 25 January)

Event Time Altitude Azimuth Distance (km) Brightness Sun altitude
Rises 17:17:17 0° 233° (SW) 2,911 12.3 -11.5°
Reaches altitude 10° 17:19:44 10° 225° (SW) 2,008 10.9 -11.8°
Maximum altitude 17:23:56 35° 160° (SSE) 1,019 8.2 -12.4°
Enters shadow 17:27:17 15° 100° (E) 1,723 8.8 -12.9°
